SQ6RR-12 Weather Reports


Display with metric or nautical units.
time (UTC)temp
F
wind
direction
speed
MPH
gust
MPH
rain 1hr
in
rain 24hr
in
rain mn
in
humidity
%
barometer
mb
20260504110307 77 0 0.0 0.0 0.00 0.00 0.00 40 1014.7
20260504100435 77 0 0.0 0.0 0.00 0.00 0.00 38 1015.2
20260504081702 76 0 0.0 0.0 0.00 0.00 0.00 38 1015.2
20260504081234 75 0 0.0 0.0 0.00 0.00 0.00 42 1015.3
20260504080756 73 0 0.0 0.0 0.00 0.00 0.00 44 1015.3
20260504080321 71 0 0.0 0.0 0.00 0.00 0.00 44 1015.2
20260504060230 65 0 0.0 0.0 0.00 0.00 0.00 64 1015.6
20260504050511 51 0 0.0 0.0 0.00 0.00 0.00 88 1015.6
20260504050017 50 0 0.0 0.0 0.00 0.00 0.00 94 1015.4
20260504045559 49 0 0.0 0.0 0.00 0.00 0.00 94 1015.4
20260504045136 49 0 0.0 0.0 0.00 0.00 0.00 95 1015.4
20260504044702 49 0 0.0 0.0 0.00 0.00 0.00 95 1015.3
20260504044237 49 0 0.0 0.0 0.00 0.00 0.00 95 1015.2
20260504043807 48 0 0.0 0.0 0.00 0.00 0.00 95 1015.2
20260504043336 48 0 0.0 0.0 0.00 0.00 0.00 94 1015.2
20260504042906 48 0 0.0 0.0 0.00 0.00 0.00 92 1015.2
20260504042425 48 0 0.0 0.0 0.00 0.00 0.00 89 1015.1
20260504041957 48 0 0.0 0.0 0.00 0.00 0.00 86 1015.1
20260504041534 48 0 0.0 0.0 0.00 0.00 0.00 86 1015.1
20260504041054 48 0 0.0 0.0 0.00 0.00 0.00 86 1015.1
20260504040625 48 0 0.0 0.0 0.00 0.00 0.00 84 1015.1
20260504040222 48 0 0.0 0.0 0.00 0.00 0.00 83 1015.1
20260504035752 49 0 0.0 0.0 0.00 0.00 0.00 80 1015.1
20260504035322 49 0 0.0 0.0 0.00 0.00 0.00 80 1015.2
20260504034901 49 0 0.0 0.0 0.00 0.00 0.00 79 1015.3
20260504034442 49 0 0.0 0.0 0.00 0.00 0.00 79 1015.3
20260504034030 49 0 0.0 0.0 0.00 0.00 0.00 79 1015.3
20260504033617 49 0 0.0 0.0 0.00 0.00 0.00 81 1015.3
20260504033147 48 0 0.0 0.0 0.00 0.00 0.00 80 1015.2
20260504032725 49 0 0.0 0.0 0.00 0.00 0.00 80 1015.2
20260504032252 49 0 0.0 0.0 0.00 0.00 0.00 79 1015.2
20260504031816 48 0 0.0 0.0 0.00 0.00 0.00 79 1015.2
20260504031347 48 0 0.0 0.0 0.00 0.00 0.00 79 1015.3
20260504030914 48 0 0.0 0.0 0.00 0.00 0.00 79 1015.2
20260504030445 48 0 0.0 0.0 0.00 0.00 0.00 78 1015.2
20260504030017 48 0 0.0 0.0 0.00 0.00 0.00 77 1015.2
20260504025547 48 0 0.0 0.0 0.00 0.00 0.00 74 1015.2
20260504025127 49 0 0.0 0.0 0.00 0.00 0.00 74 1015.2
20260504024650 49 0 0.0 0.0 0.00 0.00 0.00 72 1015.2
20260504024241 49 0 0.0 0.0 0.00 0.00 0.00 70 1015.2
20260504023812 50 0 0.0 0.0 0.00 0.00 0.00 69 1015.2
20260504023332 50 0 0.0 0.0 0.00 0.00 0.00 68 1015.2
20260504022844 51 0 0.0 0.0 0.00 0.00 0.00 67 1015.2
20260504022406 51 0 0.0 0.0 0.00 0.00 0.00 66 1015.1
20260504021927 52 0 0.0 0.0 0.00 0.00 0.00 66 1015.1
20260504021502 51 0 0.0 0.0 0.00 0.00 0.00 67 1015.1
20260504021021 51 0 0.0 0.0 0.00 0.00 0.00 66 1015.2
20260504020535 51 0 0.0 0.0 0.00 0.00 0.00 66 1015.2
20260504020057 50 0 0.0 0.0 0.00 0.00 0.00 66 1015.2
20260504015618 51 0 0.0 0.0 0.00 0.00 0.00 65 1015.2
20260504015156 51 0 0.0 0.0 0.00 0.00 0.00 65 1015.2
20260504014732 51 0 0.0 0.0 0.00 0.00 0.00 64 1015.2
20260504014310 53 0 0.0 0.0 0.00 0.00 0.00 63 1015.1
20260504013832 53 0 0.0 0.0 0.00 0.00 0.00 63 1015.1
20260504013347 52 0 0.0 0.0 0.00 0.00 0.00 63 1015.1
20260504012922 53 0 0.0 0.0 0.00 0.00 0.00 63 1015.2
20260504012452 53 0 0.0 0.0 0.00 0.00 0.00 62 1015.1
20260504012037 53 0 0.0 0.0 0.00 0.00 0.00 62 1015.1
20260504011605 53 0 0.0 0.0 0.00 0.00 0.00 63 1015.1
20260504011147 53 0 0.0 0.0 0.00 0.00 0.00 63 1015.1
20260504010712 53 0 0.0 0.0 0.00 0.00 0.00 62 1015.1
20260504010241 53 0 0.0 0.0 0.00 0.00 0.00 61 1015.1
20260504005812 54 0 0.0 0.0 0.00 0.00 0.00 60 1015.1
20260504005342 54 0 0.0 0.0 0.00 0.00 0.00 61 1015.1
20260504004909 54 0 0.0 0.0 0.00 0.00 0.00 61 1015.1
20260504004447 54 0 0.0 0.0 0.00 0.00 0.00 62 1015.1
20260504004003 55 0 0.0 0.0 0.00 0.00 0.00 61 1015.1
20260504003537 55 0 0.0 0.0 0.00 0.00 0.00 61 1015.0
20260504003112 55 0 0.0 0.0 0.00 0.00 0.00 61 1015.0
20260504002636 55 0 0.0 0.0 0.00 0.00 0.00 62 1015.0
20260504002222 55 0 0.0 0.0 0.00 0.00 0.00 64 1015.1
20260504001751 55 0 0.0 0.0 0.00 0.00 0.00 64 1015.0
20260504001257 55 0 0.0 0.0 0.00 0.00 0.00 64 1015.0
20260504000821 53 0 0.0 0.0 0.00 0.00 0.00 69 1015.1
20260504000357 53 0 0.0 0.0 0.00 0.00 0.00 70 1015.1
20260503235938 53 0 0.0 0.0 0.00 0.00 0.00 68 1015.2
20260503235520 53 0 0.0 0.0 0.00 0.00 0.00 69 1015.2
20260503235102 53 0 0.0 0.0 0.00 0.00 0.00 67 1015.3
20260503234637 53 0 0.0 0.0 0.00 0.00 0.00 67 1015.3
20260503234212 54 0 0.0 0.0 0.00 0.00 0.00 64 1015.4
20260503233737 54 0 0.0 0.0 0.00 0.00 0.00 64 1015.4
20260503233312 55 0 0.0 0.0 0.00 0.00 0.00 62 1015.4
20260503232855 55 0 0.0 0.0 0.00 0.00 0.00 62 1015.4
20260503232433 55 0 0.0 0.0 0.00 0.00 0.00 62 1015.4
20260503232002 54 0 0.0 0.0 0.00 0.00 0.00 64 1015.4
20260503231519 54 0 0.0 0.0 0.00 0.00 0.00 64 1015.4
20260503231039 54 0 0.0 0.0 0.00 0.00 0.00 64 1015.4
20260503230607 54 0 0.0 0.0 0.00 0.00 0.00 62 1015.5
20260503230131 54 0 0.0 0.0 0.00 0.00 0.00 62 1015.4
20260503225651 55 0 0.0 0.0 0.00 0.00 0.00 61 1015.4
20260503225222 55 0 0.0 0.0 0.00 0.00 0.00 60 1015.4
20260503224748 55 0 0.0 0.0 0.00 0.00 0.00 60 1015.4
20260503224307 55 0 0.0 0.0 0.00 0.00 0.00 60 1015.4
20260503223847 55 0 0.0 0.0 0.00 0.00 0.00 58 1015.4
20260503223411 56 0 0.0 0.0 0.00 0.00 0.00 57 1015.4
20260503222957 57 0 0.0 0.0 0.00 0.00 0.00 57 1015.4
20260503222532 56 0 0.0 0.0 0.00 0.00 0.00 57 1015.4
20260503222111 56 0 0.0 0.0 0.00 0.00 0.00 57 1015.4
20260503221642 55 0 0.0 0.0 0.00 0.00 0.00 58 1015.4
20260503221216 55 0 0.0 0.0 0.00 0.00 0.00 58 1015.4
20260503220746 56 0 0.0 0.0 0.00 0.00 0.00 57 1015.5
20260503220326 56 0 0.0 0.0 0.00 0.00 0.00 57 1015.5
20260503215842 56 0 0.0 0.0 0.00 0.00 0.00 58 1015.5
20260503215434 55 0 0.0 0.0 0.00 0.00 0.00 58 1015.5
20260503214957 56 0 0.0 0.0 0.00 0.00 0.00 57 1015.5
20260503214527 55 0 0.0 0.0 0.00 0.00 0.00 57 1015.5
20260503214122 55 0 0.0 0.0 0.00 0.00 0.00 57 1015.6
20260503213646 55 0 0.0 0.0 0.00 0.00 0.00 57 1015.5
20260503213215 55 0 0.0 0.0 0.00 0.00 0.00 57 1015.6
20260503212747 56 0 0.0 0.0 0.00 0.00 0.00 56 1015.6
20260503212328 56 0 0.0 0.0 0.00 0.00 0.00 55 1015.6
20260503211912 57 0 0.0 0.0 0.00 0.00 0.00 53 1015.6
20260503211437 57 0 0.0 0.0 0.00 0.00 0.00 53 1015.6
20260503211001 57 0 0.0 0.0 0.00 0.00 0.00 53 1015.7
20260503210528 57 0 0.0 0.0 0.00 0.00 0.00 52 1015.7
20260503205639 58 0 0.0 0.0 0.00 0.00 0.00 51 1015.7
20260503205224 58 0 0.0 0.0 0.00 0.00 0.00 51 1015.7
20260503204756 58 0 0.0 0.0 0.00 0.00 0.00 50 1015.8
20260503204347 58 0 0.0 0.0 0.00 0.00 0.00 49 1015.8
20260503203914 59 0 0.0 0.0 0.00 0.00 0.00 49 1015.7
20260503203427 59 0 0.0 0.0 0.00 0.00 0.00 48 1015.8
20260503203002 59 0 0.0 0.0 0.00 0.00 0.00 48 1015.7
20260503202537 59 0 0.0 0.0 0.00 0.00 0.00 49 1015.7
20260503202112 58 0 0.0 0.0 0.00 0.00 0.00 50 1015.6
20260503201632 58 0 0.0 0.0 0.00 0.00 0.00 49 1015.7
20260503201208 58 0 0.0 0.0 0.00 0.00 0.00 49 1015.7
20260503200722 58 0 0.0 0.0 0.00 0.00 0.00 49 1015.8
20260503200237 58 0 0.0 0.0 0.00 0.00 0.00 48 1015.8
20260503195817 59 0 0.0 0.0 0.00 0.00 0.00 47 1015.9
20260503195357 59 0 0.0 0.0 0.00 0.00 0.00 46 1015.8
20260503194927 59 0 0.0 0.0 0.00 0.00 0.00 46 1015.8
20260503194511 60 0 0.0 0.0 0.00 0.00 0.00 45 1015.7
20260503194105 60 0 0.0 0.0 0.00 0.00 0.00 45 1015.8
20260503193637 60 0 0.0 0.0 0.00 0.00 0.00 45 1015.7
20260503193157 60 0 0.0 0.0 0.00 0.00 0.00 44 1015.7
20260503192732 60 0 0.0 0.0 0.00 0.00 0.00 44 1015.7
20260503192252 60 0 0.0 0.0 0.00 0.00 0.00 44 1015.6
20260503191817 61 0 0.0 0.0 0.00 0.00 0.00 43 1015.7
20260503191354 61 0 0.0 0.0 0.00 0.00 0.00 42 1015.6
20260503190929 62 0 0.0 0.0 0.00 0.00 0.00 41 1015.5
20260503190457 62 0 0.0 0.0 0.00 0.00 0.00 41 1015.5
20260503190032 63 0 0.0 0.0 0.00 0.00 0.00 41 1015.4
20260503185558 63 0 0.0 0.0 0.00 0.00 0.00 41 1015.4
20260503185137 63 0 0.0 0.0 0.00 0.00 0.00 40 1015.3
20260503184702 63 0 0.0 0.0 0.00 0.00 0.00 39 1015.3
20260503184252 62 0 0.0 0.0 0.00 0.00 0.00 41 1015.3
20260503183830 62 0 0.0 0.0 0.00 0.00 0.00 41 1015.3
20260503183357 63 0 0.0 0.0 0.00 0.00 0.00 39 1015.3
20260503182917 63 0 0.0 0.0 0.00 0.00 0.00 39 1015.3
20260503182457 64 0 0.0 0.0 0.00 0.00 0.00 38 1015.2
20260503182031 64 0 0.0 0.0 0.00 0.00 0.00 38 1015.2
20260503181606 65 0 0.0 0.0 0.00 0.00 0.00 37 1015.2
20260503181144 65 0 0.0 0.0 0.00 0.00 0.00 36 1015.2
20260503180700 66 0 0.0 0.0 0.00 0.00 0.00 36 1015.2
20260503180240 66 0 0.0 0.0 0.00 0.00 0.00 35 1015.1
20260503175817 67 0 0.0 0.0 0.00 0.00 0.00 35 1015.1
20260503175337 68 0 0.0 0.0 0.00 0.00 0.00 34 1015.2
20260503174922 69 0 0.0 0.0 0.00 0.00 0.00 33 1015.1
20260503174452 71 0 0.0 0.0 0.00 0.00 0.00 31 1015.0
20260503174018 72 0 0.0 0.0 0.00 0.00 0.00 30 1015.1
20260503173536 74 0 0.0 0.0 0.00 0.00 0.00 31 1015.1
20260503173052 74 0 0.0 0.0 0.00 0.00 0.00 29 1015.1
20260503172627 75 0 0.0 0.0 0.00 0.00 0.00 28 1015.2
20260503172207 75 0 0.0 0.0 0.00 0.00 0.00 28 1015.1
20260503171742 74 0 0.0 0.0 0.00 0.00 0.00 27 1015.1
20260503171307 73 0 0.0 0.0 0.00 0.00 0.00 30 1015.1
20260503170847 73 0 0.0 0.0 0.00 0.00 0.00 29 1015.1
20260503170409 73 0 0.0 0.0 0.00 0.00 0.00 28 1015.1
20260503160107 81 0 0.0 0.0 0.00 0.00 0.00 21 1015.3
20260503150712 82 0 0.0 0.0 0.00 0.00 0.00 23 1015.6
20260503150132 82 0 0.0 0.0 0.00 0.00 0.00 23 1015.8
20260503131357 82 0 0.0 0.0 0.00 0.00 0.00 24 1016.8
20260503130922 81 0 0.0 0.0 0.00 0.00 0.00 23 1016.8
20260503130447 81 0 0.0 0.0 0.00 0.00 0.00 23 1016.9
20260503120217 81 0 0.0 0.0 0.00 0.00 0.00 25 1017.5